Regional Weather Roundup
Issued by NWS Upton, NY

Current Version | Previous Version | Graphics & Text | Print | Product List | Glossary Off
Versions: 1 2 3 4 5 6 7 8 9 10 11 12 13 14 15 16 17 18 19 20 21 22 23 24 25 26 27 28 29 30 31 32 33 34 35 36 37 38 39 40 41 42 43 44 45 46 47 48 49 50

564
ASUS41 KOKX 291304
RWROKX

REGIONAL WEATHER ROUNDUP
NATIONAL WEATHER SERVICE NEW YORK NY
900 AM EDT FRI JUL 29 2016

NOTE: "FAIR" INDICATES FEW OR NO CLOUDS BELOW 12,000 FEET WITH NO
SIGNIFICANT WEATHER AND/OR OBSTRUCTIONS TO VISIBILITY.

NYZ071-072-176-178-NJZ106-104-291400-
NEW YORK CITY METRO AREA

CITY           SKY/WX    TMP DP  RH WIND       PRES   REMARKS
Central Park   LGT RAIN  70  67  90 VRB5      29.90R FOG
LaGuardia APRT LGT RAIN  71  68  90 N10       29.86R
Kennedy INTL   RAIN      70  67  90 NE9       29.87R FOG
Newark/Liberty HVY RAIN  70  69  97 N10       29.86R FOG
Bronx Bot Gard   N/A     68  66  94 N5        29.89R
Wall St Helipt CLOUDY    72  70  94 NE5       29.87R
Teterboro      LGT RAIN  71  67  87 NE5       29.86R FOG
$$

NYZ177-179-078>081-291400-
LONG ISLAND NEW YORK

CITY           SKY/WX    TMP DP  RH WIND       PRES   REMARKS
Farmingdale    HVY RAIN  68  66  93 NE13      29.85R FOG
MacArthur/ISP  RAIN      68  67  96 N9        29.84R FOG
Shirley        RAIN      69  68  96 N10       29.85R FOG
Riverhead      NOT AVBL
Westhampton    HVY RAIN  70  68  93 N9        29.86R FOG
Southhampton     N/A     70  68  94 NE5       29.80R
Bridgehampton    N/A     70  70 100 E5        29.83S
East Hampton   LGT RAIN  70  69  96 N5        29.84R
Montauk          N/A     71  70  96 NE5       29.85R
$$

NYZ052-065-067-291400-
HUDSON VALLEY

CITY           SKY/WX    TMP DP  RH WIND       PRES   REMARKS
White Plains   LGT RAIN  70  66  87 NE3       29.87R
Newburgh       LGT RAIN  72  70  94 VRB6      29.90R
Montgomery     PTSUNNY   74  70  87 N5        29.89R
Poughkeepsie   MOSUNNY   74  68  81 CALM      29.87S
Albany         PTSUNNY   72  67  84 N6        29.90R
$$

NJZ001-105-106-008-010-013-015-019>022-104-291400-
NEW JERSEY

CITY           SKY/WX    TMP DP  RH WIND       PRES   REMARKS
Newark/Liberty HVY RAIN  70  69  97 N10       29.86R FOG
Teterboro      LGT RAIN  71  67  87 NE5       29.86R FOG
Caldwell       LGT RAIN  71  69  93 N3        29.87S
Morristown     CLOUDY    70  66  88 N5        29.87S FOG
Somerville     LGT RAIN  72  68  87 N5        29.85S
Linden         RAIN      71  69  93 CALM      29.88R
Sussex         CLOUDY    73  70  90 NE6       29.89R
Abdover          N/A     72  69  90 VRB3      29.89S
Trenton        CLOUDY    72  68  87 NE9       29.85S
Millville      CLOUDY    74  71  91 N12       29.82S
Atlantic City  LGT RAIN  75  72  90 NW8       29.80R FOG
Wrightstown    LGT RAIN  72  70  94 N12       29.82R
Toms River     RAIN      71  70  96 N12G20    29.83R
Belmar         RAIN      70  69  97 NW13      29.85R FOG
$$

PAZ047>061-062-071-291400-
EASTERN PENNSYLVANIA

CITY           SKY/WX    TMP DP  RH WIND       PRES   REMARKS
Philadelphia   CLOUDY    74  71  91 NE8       29.85S
Allentown      CLOUDY    75  69  81 NE5       29.88S
Scranton       CLOUDY    72  69  90 W5        29.91R
$$

CTZ002-004>006-009-010-012-RIZ004-006-007-MAZ004-011-015-291400-
SOUTHERN NEW ENGLAND
 IN CT

CITY           SKY/WX    TMP DP  RH WIND       PRES   REMARKS
Bradley INTL   LGT RAIN  72  70  93 N6        29.89R FOG
Hartford       LGT RAIN  76  71  85 N9        29.87R
Danbury        CLOUDY    71  68  90 VRB5      29.90R
Wtrbury/Oxford LGT RAIN  70  64  83 VRB6      29.90R
Bridgeport     LGT RAIN  73  68  84 N7        29.86R
Meriden        LGT RAIN  75  70  84 VRB3      29.87R
New Haven      CLOUDY    71  69  93 NE7       29.86R
Chester        RAIN      68  66  94 NE5       29.87F
Groton         RAIN      73  70  90 N10       29.84R FOG
Wilimantic     LGT RAIN  74  72  93 CALM      29.89R

 IN RI

CITY           SKY/WX    TMP DP  RH WIND       PRES   REMARKS
Providence     LGT RAIN  74  68  81 NW7       29.87S
Block Island   RAIN      72  70  93 NE8       29.85R FOG
Westerly       RAIN      73  68  84 N7        29.86R
 IN MA

CITY           SKY/WX    TMP DP  RH WIND       PRES   REMARKS
Boston         LGT RAIN  73  69  87 E6        29.88R
Worchester     LGT RAIN  69  65  86 N5        29.92R
Westfield      LGT RAIN  73  69  87 CALM      29.90R
Provincetown   LGT RAIN  75  73  93 W6        29.86R
Nantucket      CLOUDY    73  71  93 N8        29.84S
$$

ANZ330-335-338-340-345-350-353-355-291400-
COASTAL MARINE OBSERVATIONS


STATION/POSITION TIME  SKY/WX   TEMP    WIND        PRES    VSBY  WAVE
                                AIR SEA DIR/SP/G                  HT/PER
                 (UTC)          (F)     (DEG/KT/KT) (MB)    (MI)  (FT/S)
NY HARB ENTRANCE 1150            71 72   30/ 17/ 21 1009.2          2/ 3
20S FIRE ISLAND  1150            73 77   20/ 17/ 19 1008.6          2/ 5
GREAT SOUTH BAY  1230            71 82   20/ 16/ 17   N/A
23 SSW MONTAUK P 1150            74 73   10/ 10/ 10 1010.1          1/ 8
15 E BARNEGAT LI 1200               78                N/A           2/ 5
HUDSON CANYON    1150            77 79              1008.5          2/ 5
KINGS POINT      1200            70 73              1010.2
EXECUTION ROCKS  NOT AVBL
CENTRAL LI SOUND NOT AVBL
EASTERN LI SOUND NOT AVBL
ROBBINS REEF     1200            71      50/ 14/ 16 1009.8
$$


>>>>>>>>>>>>>>>>>>>>>>>>>>>> KEY <<<<<<<<<<<<<<<<<<<<<<<<<<<
>                                                          <
>     SKY/WX - Sky Condition/Present Weather               <
>     TMP    - Temperature in Fahrenheit                   <
>     DP     - Dew Point in Fahrenheit                     <
>     RH     - Relative Humidity in Percent                <
>     WIND   - Direction (from) and Speed in MPH           <
>     PRES   - Mean Sea Level Pressure (inches of Hg)      <
>     WCI    - Wind Chill Index                            <
>     VSB    - VISIBILITY IN MILES                         <
>     HX     - HEAT INDEX                                  <
>     TC     - TEMPERATURE IN CELSIUS                      <
>     VRB    - VARIABLE WIND DIRECTION                     <
>                                                          <
>>>>>>>>>>>>>>>>>>>>>>>>>>>> KEY <<<<<<<<<<<<<<<<<<<<<<<<<<<




USA.gov is the U.S. government's official web portal to all federal, state and local government web resources and services.